Вернуться в каталог

ATLAS 5 CENTAUR DEB

АктивенHEO
NORAD 44673·DEBRIS·🇺🇸 United States

Запущен Oct 17, 2018 с Cape Canaveral Space Force Station

Loading…

Ближайшие Пролёты (ближайшие 24 часа)

TLE

СвежийSource: Space-Track

Эпоха: Sep 14, 2026, 11:47 UTC

1 44673U 18079AK  26257.49134477 -.00000166  00000-0  00000-0 0  9994
2 44673  13.4679  36.2366 4709947 309.6906  17.3921  1.77545520 51459

Отслеживайте ATLAS 5 CENTAUR DEB в реальном времени с AllMySat

Download on the App Store